EW1361 Okeechobee FL US current weather conditions

sailwx.info

Wind from 132

Air temperature 26.1° C
Dewpoint 19.0° C

Last reported at 2020-Sep-18 09:00 UTC.
Time now 2020-Sep-18 09:32 UTC

Location: N 27°08' W 080°53'.
View on Google Maps.

See reports from other nearby stations

  
Tides and Currents Weather Stations Pressure Air Temp Water Temp Dewpoint Dewpoint Depression Visibility Wind Speed Wind Dir Waves Ship Positions
date/time (UTC)wind fromknots sea level pressurealtimeterstation pressurevisibilityair tempwater tempwave heightnotes
2020-Sep-18 09:00 132 26.1
2020-Sep-18 08:45 095 26.1
2020-Sep-18 08:30 117 26.1
2020-Sep-18 08:18 108 26.1
2020-Sep-18 08:04 090 26.1
2020-Sep-18 07:46 104 1 gusting 3 26.1
2020-Sep-18 07:31 120 0 gusting 3 26.1
2020-Sep-18 07:17 119 0 gusting 3 26.1
2020-Sep-18 07:01 103 26.1
2020-Sep-18 06:46 110 26.1
2020-Sep-18 06:31 111 26.1
2020-Sep-18 06:15 087 26.1
2020-Sep-18 06:00 087 26.1
2020-Sep-18 05:31 107 26.1
2020-Sep-18 05:15 113 26.1
2020-Sep-18 05:00 113 26.1
2020-Sep-18 04:45 120 26.1
2020-Sep-18 04:31 095 0 gusting 3 26.1
2020-Sep-18 04:15 110 26.7
2020-Sep-18 04:00 108 26.1
2020-Sep-18 03:45 102 26.1
2020-Sep-18 03:30 106 26.1
2020-Sep-18 03:16 110 26.1
2020-Sep-18 03:01 112 26.7
2020-Sep-18 02:46 120 26.7
2020-Sep-18 02:31 115 26.7
2020-Sep-18 02:01 118 0 gusting 2 27.2
2020-Sep-18 01:47 101 27.2
2020-Sep-18 01:31 105 27.2
2020-Sep-18 01:16 111 27.2
2020-Sep-18 01:01 111 0 gusting 2 27.8
2020-Sep-18 00:46 112 27.8
2020-Sep-18 00:31 111 27.8
2020-Sep-18 00:16 124 28.3
2020-Sep-18 00:01 217 28.3
2020-Sep-17 23:46 156 0 gusting 3 28.9
2020-Sep-17 23:31 099 0 gusting 3 29.4
2020-Sep-17 23:16 077 29.4
2020-Sep-17 23:00 073 0 gusting 3 30.0
2020-Sep-17 22:45 079 0 gusting 6 29.4
2020-Sep-17 22:32 070 5 gusting 8 29.4
2020-Sep-17 22:16 038 4 gusting 11 29.4
2020-Sep-17 22:00 065 6 gusting 8 30.6
2020-Sep-17 21:45 117 2 gusting 5 31.1
2020-Sep-17 21:30 057 1 gusting 6 31.1
2020-Sep-17 21:15 061 3 gusting 6 30.6
2020-Sep-17 21:00 056 3 gusting 7 30.0
2020-Sep-17 20:45 061 5 gusting 10 30.0
2020-Sep-17 20:32 068 6 gusting 12 30.0
2020-Sep-17 20:17 059 6 gusting 11 29.4
2020-Sep-17 20:01 079 8 gusting 15 30.6
2020-Sep-17 19:47 069 6 gusting 10 31.1
2020-Sep-17 19:32 073 5 gusting 11 31.1
2020-Sep-17 19:16 073 6 gusting 10 31.7
2020-Sep-17 19:02 060 6 gusting 11 31.1
2020-Sep-17 18:47 058 6 gusting 12 31.1
2020-Sep-17 18:31 065 4 gusting 12 31.1
2020-Sep-17 18:16 058 5 gusting 9 31.1
2020-Sep-17 18:01 084 6 gusting 10 31.1
2020-Sep-17 17:46 056 3 gusting 9 31.1
2020-Sep-17 17:30 062 6 gusting 11 30.6
2020-Sep-17 17:15 065 6 gusting 10 30.6
2020-Sep-17 17:00 075 3 gusting 11 30.6
2020-Sep-17 16:45 076 3 gusting 13 30.6
2020-Sep-17 16:30 062 5 gusting 11 30.0
2020-Sep-17 16:15 058 4 gusting 11 30.0
2020-Sep-17 16:00 094 6 gusting 12 30.0
2020-Sep-17 15:45 039 4 gusting 13 29.4
2020-Sep-17 15:30 065 6 gusting 9 29.4
2020-Sep-17 15:15 094 4 gusting 11 28.9
2020-Sep-17 15:01 067 5 gusting 11 28.9
2020-Sep-17 14:46 064 6 gusting 11 28.3
2020-Sep-17 14:31 075 3 gusting 10 28.9
2020-Sep-17 14:16 055 4 gusting 13 28.3
2020-Sep-17 14:00 065 5 gusting 11 28.3
2020-Sep-17 13:46 069 4 gusting 10 28.3
2020-Sep-17 13:30 108 2 gusting 11 28.3
2020-Sep-17 13:15 084 5 gusting 13 27.8
2020-Sep-17 13:01 039 6 gusting 12 27.8
2020-Sep-17 12:46 066 5 gusting 12 27.8
2020-Sep-17 12:31 056 6 gusting 10 27.2
2020-Sep-17 12:16 062 6 gusting 9 27.2
2020-Sep-17 12:01 070 4 gusting 8 26.7
2020-Sep-17 11:46 063 4 gusting 6 26.1
2020-Sep-17 11:31 063 3 gusting 7 26.1
2020-Sep-17 11:18 068 4 gusting 6 26.1
2020-Sep-17 11:00 062 3 gusting 6 26.1
2020-Sep-17 10:45 068 2 gusting 7 26.1
2020-Sep-17 10:31 059 2 gusting 6 26.1
2020-Sep-17 10:16 067 2 gusting 6 26.1
2020-Sep-17 10:01 063 3 gusting 6 26.1
2020-Sep-17 09:46 068 4 gusting 7 26.1
2020-Sep-17 09:31 064 1 gusting 4 26.1
2020-Sep-17 09:15 074 2 gusting 4 26.1
2020-Sep-17 09:00 068 2 gusting 6 26.1
2020-Sep-17 08:46 066 3 gusting 6 26.1
2020-Sep-17 08:31 074 3 gusting 6 26.1
2020-Sep-17 08:15 064 3 gusting 6 26.1
2020-Sep-17 08:02 063 3 gusting 6 26.1
2020-Sep-17 07:46 067 2 gusting 5 26.1
2020-Sep-17 07:32 060 2 gusting 7 26.1
2020-Sep-17 07:16 068 4 gusting 6 26.1
2020-Sep-17 07:01 073 2 gusting 6 26.1
2020-Sep-17 06:46 068 2 gusting 6 26.1
2020-Sep-17 06:31 082 3 gusting 6 26.1
2020-Sep-17 06:16 056 2 gusting 5 26.1
2020-Sep-17 06:00 060 2 gusting 5 25.6
2020-Sep-17 05:46 071 2 gusting 6 25.6
2020-Sep-17 05:30 069 0 gusting 2 25.0
2020-Sep-17 05:15 068 0 gusting 1 25.0
2020-Sep-17 05:00 065 0 gusting 2 25.6
2020-Sep-17 04:45 057 25.6
2020-Sep-17 04:30 063 25.0
2020-Sep-17 04:15 059 3 gusting 6 25.0
2020-Sep-17 04:04 067 3 gusting 6 25.6
2020-Sep-17 03:46 060 0 gusting 3 25.6
2020-Sep-17 03:32 067 0 gusting 3 25.0
2020-Sep-17 03:16 053 25.0
2020-Sep-17 03:00 003 24.4
2020-Sep-17 02:46 280 24.4
2020-Sep-17 02:31 195 24.4
2020-Sep-17 02:16 195 23.9
2020-Sep-17 02:01 129 24.4
2020-Sep-17 01:45 188 24.4
2020-Sep-17 01:30 026 24.4
2020-Sep-17 01:15 052 23.9
2020-Sep-17 01:00 030 1 gusting 2 23.9
2020-Sep-17 00:45 275 23.3
2020-Sep-17 00:30 174 23.3
2020-Sep-17 00:15 282 0 gusting 2 23.3
2020-Sep-17 00:00 261 0 gusting 2 23.3
2020-Sep-16 23:45 271 23.3
2020-Sep-16 23:32 271 23.3
2020-Sep-16 23:17 175 0 gusting 2 23.3
2020-Sep-16 23:02 111 1 gusting 6 23.9
2020-Sep-16 22:46 096 5 gusting 12 25.6
2020-Sep-16 22:32 073 2 gusting 5 28.3
2020-Sep-16 22:16 053 4 gusting 8 28.3
2020-Sep-16 22:02 029 5 gusting 9 28.9
2020-Sep-16 21:32 330 3 gusting 7 30.0
2020-Sep-16 21:16 036 3 gusting 8 30.6
2020-Sep-16 21:01 041 2 gusting 10 30.0
2020-Sep-16 20:46 036 4 gusting 8 30.6
2020-Sep-16 20:30 055 4 gusting 6 31.7
2020-Sep-16 20:16 065 3 gusting 7 31.7
2020-Sep-16 20:00 020 3 gusting 8 31.7
2020-Sep-16 19:46 065 1 gusting 8 31.1
2020-Sep-16 19:30 072 2 gusting 9 31.7
2020-Sep-16 19:15 056 3 gusting 8 31.7
2020-Sep-16 18:47 056 4 gusting 8 31.7
2020-Sep-16 18:31 065 6 gusting 10 31.7
2020-Sep-16 18:18 095 3 gusting 10 31.1
2020-Sep-16 18:01 089 3 gusting 8 31.7
2020-Sep-16 17:46 069 3 gusting 7 31.1
2020-Sep-16 17:31 071 3 gusting 8 31.1
2020-Sep-16 17:16 083 3 gusting 8 31.1
2020-Sep-16 17:01 074 4 gusting 10 30.6
2020-Sep-16 16:46 027 5 gusting 11 30.0
2020-Sep-16 16:30 065 5 gusting 10 30.0
2020-Sep-16 16:15 079 4 gusting 12 30.0
2020-Sep-16 16:00 077 7 gusting 12 29.4
2020-Sep-16 15:45 060 6 gusting 12 29.4
2020-Sep-16 15:30 072 4 gusting 9 29.4
2020-Sep-16 15:15 040 5 gusting 10 29.4
2020-Sep-16 15:00 065 5 gusting 10 29.4
2020-Sep-16 14:45 054 6 gusting 11 28.9
2020-Sep-16 14:30 082 6 gusting 11 28.9
2020-Sep-16 14:16 063 6 gusting 12 28.9
2020-Sep-16 14:02 050 5 gusting 10 28.9
2020-Sep-16 13:45 060 6 gusting 11 28.3
2020-Sep-16 13:30 065 6 gusting 10 28.3
2020-Sep-16 13:15 076 5 gusting 9 28.3
2020-Sep-16 13:00 064 4 gusting 7 28.3
2020-Sep-16 12:46 046 4 gusting 7 27.8
2020-Sep-16 12:31 073 5 gusting 6 27.8
2020-Sep-16 12:17 065 3 gusting 6 27.2
2020-Sep-16 12:00 068 1 gusting 4 26.7
2020-Sep-16 11:46 060 2 gusting 5 26.1
2020-Sep-16 11:30 065 1 gusting 4 26.1
2020-Sep-16 11:16 075 1 gusting 2 26.1
2020-Sep-16 11:01 070 0 gusting 2 25.6
2020-Sep-16 10:46 070 0 gusting 3 26.1
2020-Sep-16 10:30 060 1 gusting 2 26.1
2020-Sep-16 10:15 057 1 gusting 3 26.1
2020-Sep-16 09:45 062 1 gusting 3 26.1
2020-Sep-16 09:30 046 0 gusting 4 26.1
2020-Sep-16 09:15 051 1 gusting 5 26.1
2020-Sep-16 09:00 068 1 gusting 6 25.6